Time,TemperatureF,DewpointF,PressureIn,WindDirection,WindDirectionDegrees,WindSpeedMPH,WindSpeedGustMPH,Humidity,HourlyPrecipIn,Conditions,Clouds,dailyrainin,SolarRadiationWatts/m^2,SoftwareType,DateUTC
2013-05-14 00:01:00,38.8,34.7,30.11,SSW,201,0.0,3.0,85,0.00,,,0.00,0,WxPro DR1,2013-05-14 04:01:00,
2013-05-14 00:06:00,38.7,34.6,30.11,SSW,203,0.0,4.0,85,0.00,,,0.00,0,WxPro DR1,2013-05-14 04:06:00,
2013-05-14 00:11:00,38.6,34.5,30.11,SSW,203,0.0,4.0,85,0.00,,,0.00,0,WxPro DR1,2013-05-14 04:11:00,
2013-05-14 00:16:00,38.3,34.5,30.11,SSW,203,0.0,2.0,86,0.00,,,0.00,0,WxPro DR1,2013-05-14 04:16:00,
2013-05-14 00:21:00,38.2,34.4,30.11,SSW,203,0.0,2.0,86,0.00,,,0.00,0,WxPro DR1,2013-05-14 04:21:00,
2013-05-14 00:26:00,38.0,34.2,30.11,SSW,203,0.0,3.0,86,0.00,,,0.00,0,WxPro DR1,2013-05-14 04:26:00,
2013-05-14 00:31:00,37.8,34.3,30.11,SSW,203,0.0,3.0,87,0.00,,,0.00,0,WxPro DR1,2013-05-14 04:31:00,
2013-05-14 00:36:00,37.7,34.2,30.11,SSW,194,0.0,3.0,87,0.00,,,0.00,0,WxPro DR1,2013-05-14 04:36:00,
2013-05-14 00:41:00,37.7,34.2,30.11,SSW,194,0.0,3.0,87,0.00,,,0.00,0,WxPro DR1,2013-05-14 04:41:00,
2013-05-14 00:46:00,37.7,34.2,30.11,SSW,194,0.0,2.0,87,0.00,,,0.00,0,WxPro DR1,2013-05-14 04:46:00,
2013-05-14 00:51:00,37.5,34.0,30.11,SSW,194,0.0,2.0,87,0.00,,,0.00,0,WxPro DR1,2013-05-14 04:51:00,
2013-05-14 00:56:00,37.4,34.2,30.11,SSW,194,1.0,2.0,88,0.00,,,0.00,0,WxPro DR1,2013-05-14 04:56:00,
2013-05-14 01:01:00,37.4,34.2,30.11,SSW,194,0.0,2.0,88,0.00,,,0.00,0,WxPro DR1,2013-05-14 05:01:00,
2013-05-14 01:06:00,37.3,34.1,30.11,SSW,194,0.0,2.0,88,0.00,,,0.00,0,WxPro DR1,2013-05-14 05:06:00,
2013-05-14 01:11:00,37.2,34.0,30.11,SSW,194,0.0,2.0,88,0.00,,,0.00,0,WxPro DR1,2013-05-14 05:11:00,
2013-05-14 01:16:00,37.1,33.9,30.11,SSW,194,0.0,2.0,88,0.00,,,0.00,0,WxPro DR1,2013-05-14 05:16:00,
2013-05-14 01:21:00,37.0,33.8,30.11,SSW,194,0.0,1.0,88,0.00,,,0.00,0,WxPro DR1,2013-05-14 05:21:00,
2013-05-14 01:26:00,36.9,33.7,30.12,SSW,194,0.0,1.0,88,0.00,,,0.00,0,WxPro DR1,2013-05-14 05:26:00,
2013-05-14 01:31:00,36.8,33.6,30.11,SSW,194,0.0,1.0,88,0.00,,,0.00,0,WxPro DR1,2013-05-14 05:31:00,
2013-05-14 01:36:00,36.6,33.7,30.12,SSW,194,0.0,1.0,89,0.00,,,0.00,0,WxPro DR1,2013-05-14 05:36:00,
2013-05-14 01:41:00,36.6,33.6,30.12,SSW,194,0.0,2.0,89,0.00,,,0.00,0,WxPro DR1,2013-05-14 05:41:00,
2013-05-14 01:46:00,36.5,33.6,30.12,SSW,194,0.0,2.0,89,0.00,,,0.00,0,WxPro DR1,2013-05-14 05:46:00,
2013-05-14 01:51:00,36.4,33.5,30.12,SSW,194,0.0,3.0,89,0.00,,,0.00,0,WxPro DR1,2013-05-14 05:51:00,
2013-05-14 01:56:00,36.3,33.4,30.12,SSW,194,0.0,3.0,89,0.00,,,0.00,0,WxPro DR1,2013-05-14 05:56:00,
2013-05-14 02:01:00,36.4,33.8,30.13,SSW,194,0.0,2.0,90,0.00,,,0.00,0,WxPro DR1,2013-05-14 06:01:00,
2013-05-14 02:06:00,36.4,33.5,30.13,SSW,194,0.0,2.0,89,0.00,,,0.00,0,WxPro DR1,2013-05-14 06:06:00,
2013-05-14 02:11:00,36.2,33.4,30.13,SSW,194,0.0,0.0,89,0.00,,,0.00,0,WxPro DR1,2013-05-14 06:11:00,
2013-05-14 02:16:00,36.2,33.5,30.13,SSW,194,0.0,0.0,90,0.00,,,0.00,0,WxPro DR1,2013-05-14 06:16:00,
2013-05-14 02:21:00,36.1,33.5,30.13,SSW,194,0.0,1.0,90,0.00,,,0.00,0,WxPro DR1,2013-05-14 06:21:00,
2013-05-14 02:26:00,36.0,33.4,30.13,SSW,194,1.0,1.0,90,0.00,,,0.00,0,WxPro DR1,2013-05-14 06:26:00,
2013-05-14 02:31:00,36.0,33.4,30.13,SSW,194,0.0,2.0,90,0.00,,,0.00,0,WxPro DR1,2013-05-14 06:31:00,
2013-05-14 02:36:00,36.0,33.4,30.13,SSW,194,0.0,2.0,90,0.00,,,0.00,0,WxPro DR1,2013-05-14 06:36:00,
2013-05-14 02:41:00,35.9,33.3,30.12,SSW,194,0.0,2.0,90,0.00,,,0.00,0,WxPro DR1,2013-05-14 06:41:00,
2013-05-14 02:46:00,35.7,33.1,30.12,SSW,194,0.0,1.0,90,0.00,,,0.00,0,WxPro DR1,2013-05-14 06:46:00,
2013-05-14 02:51:00,35.5,32.8,30.12,SSW,194,0.0,0.0,90,0.00,,,0.00,0,WxPro DR1,2013-05-14 06:51:00,
2013-05-14 02:56:00,35.3,33.0,30.12,SSW,194,0.0,0.0,91,0.00,,,0.00,0,WxPro DR1,2013-05-14 06:56:00,
2013-05-14 03:01:00,35.2,32.8,30.12,SSW,194,0.0,0.0,91,0.00,,,0.00,0,WxPro DR1,2013-05-14 07:01:00,
2013-05-14 03:06:00,35.0,32.6,30.12,SSW,194,0.0,0.0,91,0.00,,,0.00,0,WxPro DR1,2013-05-14 07:06:00,
2013-05-14 03:11:00,34.7,32.3,30.12,SSW,194,0.0,0.0,91,0.00,,,0.00,0,WxPro DR1,2013-05-14 07:11:00,
2013-05-14 03:16:00,34.5,32.4,30.12,SSW,194,0.0,1.0,92,0.00,,,0.00,0,WxPro DR1,2013-05-14 07:16:00,
2013-05-14 03:21:00,34.5,32.4,30.12,SSW,194,0.0,1.0,92,0.00,,,0.00,0,WxPro DR1,2013-05-14 07:21:00,
2013-05-14 03:26:00,34.4,32.3,30.12,SSW,194,0.0,0.0,92,0.00,,,0.00,0,WxPro DR1,2013-05-14 07:26:00,
2013-05-14 03:31:00,34.4,32.3,30.12,SSW,194,1.0,1.0,92,0.00,,,0.00,0,WxPro DR1,2013-05-14 07:31:00,
2013-05-14 03:36:00,34.4,32.3,30.12,SSW,194,0.0,2.0,92,0.00,,,0.00,0,WxPro DR1,2013-05-14 07:36:00,
2013-05-14 03:41:00,34.2,32.2,30.12,SSW,194,0.0,2.0,92,0.00,,,0.00,0,WxPro DR1,2013-05-14 07:41:00,
2013-05-14 03:46:00,34.2,32.3,30.12,SSW,194,0.0,2.0,93,0.00,,,0.00,0,WxPro DR1,2013-05-14 07:46:00,
2013-05-14 03:51:00,34.3,32.5,30.12,SSW,194,0.0,2.0,93,0.00,,,0.00,0,WxPro DR1,2013-05-14 07:51:00,
2013-05-14 03:56:00,34.2,32.4,30.12,SSW,194,0.0,1.0,93,0.00,,,0.00,0,WxPro DR1,2013-05-14 07:56:00,
2013-05-14 04:01:00,34.4,32.6,30.12,SSW,194,0.0,1.0,93,0.00,,,0.00,0,WxPro DR1,2013-05-14 08:01:00,
2013-05-14 04:06:00,34.3,32.5,30.12,SSW,194,0.0,1.0,93,0.00,,,0.00,0,WxPro DR1,2013-05-14 08:06:00,
2013-05-14 04:11:00,34.2,32.4,30.12,SSW,194,0.0,1.0,93,0.00,,,0.00,0,WxPro DR1,2013-05-14 08:11:00,
2013-05-14 04:16:00,34.2,32.4,30.12,SSW,194,0.0,0.0,93,0.00,,,0.00,0,WxPro DR1,2013-05-14 08:16:00,
2013-05-14 04:21:00,34.2,32.4,30.12,SSW,194,0.0,0.0,93,0.00,,,0.00,0,WxPro DR1,2013-05-14 08:21:00,
2013-05-14 04:26:00,34.2,32.4,30.12,SSW,194,0.0,1.0,93,0.00,,,0.00,0,WxPro DR1,2013-05-14 08:26:00,
2013-05-14 04:31:00,34.1,32.3,30.13,SSW,194,0.0,1.0,93,0.00,,,0.00,0,WxPro DR1,2013-05-14 08:31:00,
2013-05-14 04:36:00,34.0,32.2,30.12,SSW,194,0.0,1.0,93,0.00,,,0.00,0,WxPro DR1,2013-05-14 08:36:00,
2013-05-14 04:41:00,34.0,32.2,30.12,SSW,194,0.0,1.0,93,0.00,,,0.00,0,WxPro DR1,2013-05-14 08:41:00,
2013-05-14 04:46:00,33.8,32.3,30.13,SSW,194,0.0,0.0,94,0.00,,,0.00,0,WxPro DR1,2013-05-14 08:46:00,
2013-05-14 04:51:00,33.8,32.3,30.13,SSW,194,0.0,0.0,94,0.00,,,0.00,0,WxPro DR1,2013-05-14 08:51:00,
2013-05-14 04:56:00,33.7,32.2,30.13,SSW,194,0.0,0.0,94,0.00,,,0.00,0,WxPro DR1,2013-05-14 08:56:00,
2013-05-14 05:01:00,33.7,32.2,30.13,SSW,194,0.0,0.0,94,0.00,,,0.00,0,WxPro DR1,2013-05-14 09:01:00,
2013-05-14 05:06:00,33.8,32.2,30.13,SSW,194,0.0,1.0,94,0.00,,,0.00,0,WxPro DR1,2013-05-14 09:06:00,
2013-05-14 05:11:00,33.9,32.3,30.13,SSW,194,0.0,2.0,94,0.00,,,0.00,0,WxPro DR1,2013-05-14 09:11:00,
2013-05-14 05:16:00,33.9,32.4,30.13,SSW,194,0.0,2.0,94,0.00,,,0.00,0,WxPro DR1,2013-05-14 09:16:00,
2013-05-14 05:21:00,33.9,32.4,30.12,SSW,194,0.0,1.0,94,0.00,,,0.00,0,WxPro DR1,2013-05-14 09:21:00,
2013-05-14 05:26:00,33.9,32.4,30.12,SSW,194,0.0,0.0,94,0.00,,,0.00,0,WxPro DR1,2013-05-14 09:26:00,
2013-05-14 05:31:00,33.9,32.4,30.12,SSW,194,0.0,1.0,94,0.00,,,0.00,0,WxPro DR1,2013-05-14 09:31:00,
2013-05-14 05:36:00,33.8,32.3,30.12,SSW,194,0.0,1.0,94,0.00,,,0.00,0,WxPro DR1,2013-05-14 09:36:00,
2013-05-14 05:41:00,33.8,32.3,30.12,SSW,194,0.0,0.0,94,0.00,,,0.00,0,WxPro DR1,2013-05-14 09:41:00,
2013-05-14 05:46:00,33.7,32.2,30.12,SSW,194,0.0,0.0,94,0.00,,,0.00,5,WxPro DR1,2013-05-14 09:46:00,
2013-05-14 05:51:00,33.8,32.2,30.13,SSW,194,0.0,0.0,94,0.00,,,0.00,7,WxPro DR1,2013-05-14 09:51:00,
2013-05-14 05:56:00,33.8,32.3,30.13,SSW,194,0.0,0.0,94,0.00,,,0.00,11,WxPro DR1,2013-05-14 09:56:00,
2013-05-14 06:01:00,33.9,32.4,30.13,SSW,194,0.0,0.0,94,0.00,,,0.00,16,WxPro DR1,2013-05-14 10:01:00,
2013-05-14 06:06:00,34.0,32.5,30.13,SSW,194,0.0,0.0,94,0.00,,,0.00,21,WxPro DR1,2013-05-14 10:06:00,
2013-05-14 06:11:00,34.1,32.5,30.13,SSW,194,0.0,0.0,94,0.00,,,0.00,26,WxPro DR1,2013-05-14 10:11:00,
2013-05-14 06:16:00,34.0,32.5,30.13,SSW,194,0.0,0.0,94,0.00,,,0.00,26,WxPro DR1,2013-05-14 10:16:00,
2013-05-14 06:21:00,34.0,32.5,30.13,SSW,194,0.0,0.0,94,0.00,,,0.00,30,WxPro DR1,2013-05-14 10:21:00,
2013-05-14 06:26:00,34.1,32.7,30.14,SSW,194,0.0,0.0,94,0.00,,,0.00,30,WxPro DR1,2013-05-14 10:26:00,
2013-05-14 06:31:00,34.2,33.0,30.14,SSW,194,0.0,1.0,95,0.00,,,0.00,33,WxPro DR1,2013-05-14 10:31:00,
2013-05-14 06:36:00,34.4,33.1,30.14,SSW,194,0.0,1.0,95,0.00,,,0.00,39,WxPro DR1,2013-05-14 10:36:00,
2013-05-14 06:41:00,34.4,33.1,30.14,SSW,194,0.0,1.0,95,0.00,,,0.00,51,WxPro DR1,2013-05-14 10:41:00,
2013-05-14 06:46:00,34.6,33.3,30.14,SSW,194,1.0,1.0,95,0.00,,,0.00,63,WxPro DR1,2013-05-14 10:46:00,
2013-05-14 06:51:00,35.0,33.7,30.14,SSW,194,1.0,2.0,95,0.00,,,0.00,74,WxPro DR1,2013-05-14 10:51:00,
2013-05-14 06:56:00,35.4,34.2,30.14,SSW,194,0.0,3.0,95,0.00,,,0.00,83,WxPro DR1,2013-05-14 10:56:00,
2013-05-14 07:01:00,35.9,34.6,30.14,SSW,194,2.0,3.0,95,0.00,,,0.00,90,WxPro DR1,2013-05-14 11:01:00,
2013-05-14 07:06:00,36.4,35.1,30.14,SSW,194,1.0,3.0,95,0.00,,,0.00,95,WxPro DR1,2013-05-14 11:06:00,
2013-05-14 07:11:00,37.0,35.7,30.15,SSW,194,0.0,2.0,95,0.00,,,0.00,97,WxPro DR1,2013-05-14 11:11:00,
2013-05-14 07:16:00,37.6,36.0,30.15,SSW,194,0.0,3.0,94,0.00,,,0.00,98,WxPro DR1,2013-05-14 11:16:00,
2013-05-14 07:21:00,38.3,36.7,30.15,SSW,194,0.0,3.0,94,0.00,,,0.00,255,WxPro DR1,2013-05-14 11:21:00,
2013-05-14 07:26:00,39.1,37.3,30.15,SSW,194,0.0,2.0,93,0.00,,,0.00,271,WxPro DR1,2013-05-14 11:26:00,
2013-05-14 07:31:00,40.1,38.2,30.15,SSW,196,2.0,3.0,93,0.00,,,0.00,283,WxPro DR1,2013-05-14 11:31:00,
2013-05-14 07:36:00,40.9,38.5,30.15,SSW,195,0.0,3.0,91,0.00,,,0.00,299,WxPro DR1,2013-05-14 11:36:00,
2013-05-14 07:41:00,41.7,38.7,30.15,South,186,0.0,4.0,89,0.00,,,0.00,299,WxPro DR1,2013-05-14 11:41:00,
2013-05-14 07:46:00,42.3,38.5,30.14,SSW,211,1.0,5.0,86,0.00,,,0.00,330,WxPro DR1,2013-05-14 11:46:00,
2013-05-14 07:51:00,42.7,38.2,30.14,WSW,238,0.0,5.0,84,0.00,,,0.00,359,WxPro DR1,2013-05-14 11:51:00,
2013-05-14 07:56:00,43.2,38.1,30.14,SW,217,3.0,5.0,82,0.00,,,0.00,345,WxPro DR1,2013-05-14 11:56:00,
2013-05-14 08:01:00,43.5,38.1,30.15,SSW,207,0.0,5.0,81,0.00,,,0.00,397,WxPro DR1,2013-05-14 12:01:00,
2013-05-14 08:06:00,44.1,38.1,30.14,SSE,165,0.0,5.0,79,0.00,,,0.00,424,WxPro DR1,2013-05-14 12:06:00,
2013-05-14 08:11:00,44.7,38.4,30.15,West,261,3.0,5.0,78,0.00,,,0.00,439,WxPro DR1,2013-05-14 12:11:00,
2013-05-14 08:16:00,45.2,38.3,30.14,SSW,195,3.0,5.0,77,0.00,,,0.00,367,WxPro DR1,2013-05-14 12:16:00,
2013-05-14 08:21:00,45.4,37.6,30.14,West,275,1.0,6.0,74,0.00,,,0.00,380,WxPro DR1,2013-05-14 12:21:00,
2013-05-14 08:26:00,45.2,37.7,30.14,West,266,0.0,6.0,75,0.00,,,0.00,362,WxPro DR1,2013-05-14 12:26:00,
2013-05-14 08:31:00,45.3,37.9,30.15,West,275,0.0,4.0,75,0.00,,,0.00,308,WxPro DR1,2013-05-14 12:31:00,
2013-05-14 08:36:00,45.4,37.6,30.14,West,276,2.0,6.0,74,0.00,,,0.00,258,WxPro DR1,2013-05-14 12:36:00,
2013-05-14 08:41:00,45.3,38.2,30.14,West,266,3.0,6.0,76,0.00,,,0.00,279,WxPro DR1,2013-05-14 12:41:00,
2013-05-14 08:46:00,45.6,37.8,30.14,West,281,2.0,5.0,74,0.00,,,0.00,295,WxPro DR1,2013-05-14 12:46:00,
2013-05-14 08:51:00,45.7,37.6,30.14,WSW,255,0.0,6.0,73,0.00,,,0.00,378,WxPro DR1,2013-05-14 12:51:00,
2013-05-14 08:56:00,45.7,37.8,30.14,NW,313,2.0,6.0,74,0.00,,,0.00,499,WxPro DR1,2013-05-14 12:56:00,
2013-05-14 09:01:00,45.9,38.0,30.14,NNW,338,1.0,6.0,74,0.00,,,0.00,554,WxPro DR1,2013-05-14 13:01:00,
2013-05-14 09:06:00,46.1,38.0,30.14,NNW,329,2.0,6.0,73,0.00,,,0.00,438,WxPro DR1,2013-05-14 13:06:00,
2013-05-14 09:11:00,46.7,37.9,30.14,SW,230,1.0,5.0,71,0.00,,,0.00,285,WxPro DR1,2013-05-14 13:11:00,
2013-05-14 09:16:00,46.9,38.2,30.14,SW,236,3.0,5.0,72,0.00,,,0.00,223,WxPro DR1,2013-05-14 13:16:00,
2013-05-14 09:21:00,46.8,37.6,30.14,WNW,284,1.0,4.0,70,0.00,,,0.00,248,WxPro DR1,2013-05-14 13:21:00,
2013-05-14 09:26:00,46.5,37.9,30.14,WNW,283,0.0,4.0,72,0.00,,,0.00,262,WxPro DR1,2013-05-14 13:26:00,
2013-05-14 09:31:00,46.7,38.2,30.13,WNW,282,0.0,2.0,72,0.00,,,0.00,355,WxPro DR1,2013-05-14 13:31:00,
2013-05-14 09:36:00,47.1,38.1,30.13,West,265,0.0,3.0,71,0.00,,,0.00,424,WxPro DR1,2013-05-14 13:36:00,
2013-05-14 09:41:00,47.5,37.5,30.13,NW,306,1.0,5.0,68,0.00,,,0.00,494,WxPro DR1,2013-05-14 13:41:00,
2013-05-14 09:46:00,48.1,37.3,30.13,West,280,0.0,6.0,66,0.00,,,0.00,573,WxPro DR1,2013-05-14 13:46:00,
2013-05-14 09:51:00,48.2,37.2,30.13,NNW,329,2.0,6.0,66,0.00,,,0.00,394,WxPro DR1,2013-05-14 13:51:00,
2013-05-14 09:56:00,48.4,37.2,30.13,NW,323,3.0,5.0,65,0.00,,,0.00,446,WxPro DR1,2013-05-14 13:56:00,
2013-05-14 10:01:00,48.7,36.9,30.13,West,273,0.0,7.0,64,0.00,,,0.00,394,WxPro DR1,2013-05-14 14:01:00,
2013-05-14 10:06:00,48.5,37.2,30.13,West,272,1.0,7.0,65,0.00,,,0.00,410,WxPro DR1,2013-05-14 14:06:00,
2013-05-14 10:11:00,48.5,36.8,30.13,NW,311,0.0,5.0,64,0.00,,,0.00,434,WxPro DR1,2013-05-14 14:11:00,
2013-05-14 10:16:00,48.7,36.4,30.12,South,186,2.0,5.0,62,0.00,,,0.00,501,WxPro DR1,2013-05-14 14:16:00,
2013-05-14 10:21:00,49.2,35.8,30.12,West,280,1.0,6.0,60,0.00,,,0.00,538,WxPro DR1,2013-05-14 14:21:00,
2013-05-14 10:26:00,49.5,36.2,30.12,SSW,211,1.0,6.0,60,0.00,,,0.00,633,WxPro DR1,2013-05-14 14:26:00,
2013-05-14 10:31:00,50.0,36.4,30.12,SSW,213,2.0,6.0,59,0.00,,,0.00,545,WxPro DR1,2013-05-14 14:31:00,
2013-05-14 10:36:00,50.1,36.8,30.12,WSW,246,1.0,4.0,60,0.00,,,0.00,571,WxPro DR1,2013-05-14 14:36:00,
2013-05-14 10:41:00,50.4,36.3,30.12,South,176,0.0,4.0,58,0.00,,,0.00,587,WxPro DR1,2013-05-14 14:41:00,
2013-05-14 10:46:00,51.0,36.3,30.12,West,263,3.0,9.0,57,0.00,,,0.00,480,WxPro DR1,2013-05-14 14:46:00,
2013-05-14 10:51:00,51.4,35.8,30.12,West,271,2.0,9.0,55,0.00,,,0.00,513,WxPro DR1,2013-05-14 14:51:00,
2013-05-14 10:56:00,51.0,35.9,30.12,West,276,1.0,10.0,56,0.00,,,0.00,541,WxPro DR1,2013-05-14 14:56:00,
2013-05-14 11:01:00,50.9,35.3,30.12,West,277,0.0,10.0,55,0.00,,,0.00,464,WxPro DR1,2013-05-14 15:01:00,
2013-05-14 11:06:00,51.1,35.0,30.12,WSW,255,2.0,5.0,54,0.00,,,0.00,489,WxPro DR1,2013-05-14 15:06:00,
2013-05-14 11:11:00,51.3,35.2,30.13,NW,315,2.0,5.0,54,0.00,,,0.00,485,WxPro DR1,2013-05-14 15:11:00,
2013-05-14 11:16:00,51.3,34.4,30.12,West,266,0.0,7.0,52,0.00,,,0.00,624,WxPro DR1,2013-05-14 15:16:00,
2013-05-14 11:21:00,51.5,35.9,30.12,WNW,295,1.0,7.0,55,0.00,,,0.00,587,WxPro DR1,2013-05-14 15:21:00,
2013-05-14 11:26:00,51.5,35.8,30.12,WSW,255,4.0,7.0,55,0.00,,,0.00,541,WxPro DR1,2013-05-14 15:26:00,
2013-05-14 11:31:00,51.5,35.4,30.12,NW,325,3.0,7.0,54,0.00,,,0.00,657,WxPro DR1,2013-05-14 15:31:00,
2013-05-14 11:36:00,51.8,35.4,30.12,NW,310,0.0,5.0,53,0.00,,,0.00,605,WxPro DR1,2013-05-14 15:36:00,
2013-05-14 11:41:00,52.0,35.7,30.12,West,280,0.0,6.0,54,0.00,,,0.00,621,WxPro DR1,2013-05-14 15:41:00,
2013-05-14 11:46:00,52.0,36.0,30.12,West,279,1.0,6.0,54,0.00,,,0.00,584,WxPro DR1,2013-05-14 15:46:00,
2013-05-14 11:51:00,52.7,36.4,30.11,NW,325,3.0,6.0,54,0.00,,,0.00,680,WxPro DR1,2013-05-14 15:51:00,
2013-05-14 11:56:00,52.9,35.3,30.11,North,5,0.0,6.0,51,0.00,,,0.00,701,WxPro DR1,2013-05-14 15:56:00,
2013-05-14 12:01:00,52.9,36.1,30.11,NNE,30,3.0,6.0,53,0.00,,,0.00,592,WxPro DR1,2013-05-14 16:01:00,
2013-05-14 12:06:00,53.6,36.2,30.11,North,351,1.0,5.0,52,0.00,,,0.00,691,WxPro DR1,2013-05-14 16:06:00,
2013-05-14 12:11:00,53.8,36.0,30.11,NNW,340,5.0,6.0,51,0.00,,,0.00,761,WxPro DR1,2013-05-14 16:11:00,
2013-05-14 12:16:00,53.5,36.2,30.12,NW,309,1.0,7.0,52,0.00,,,0.00,979,WxPro DR1,2013-05-14 16:16:00,
2013-05-14 12:21:00,54.0,35.5,30.11,West,279,1.0,7.0,49,0.00,,,0.00,394,WxPro DR1,2013-05-14 16:21:00,
2013-05-14 12:26:00,54.3,36.0,30.11,West,275,0.0,6.0,50,0.00,,,0.00,399,WxPro DR1,2013-05-14 16:26:00,
2013-05-14 12:31:00,54.2,35.5,30.11,North,351,2.0,6.0,49,0.00,,,0.00,707,WxPro DR1,2013-05-14 16:31:00,
2013-05-14 12:36:00,54.2,35.8,30.11,West,269,0.0,6.0,50,0.00,,,0.00,376,WxPro DR1,2013-05-14 16:36:00,
2013-05-14 12:41:00,54.4,37.1,30.10,SSW,204,0.0,5.0,52,0.00,,,0.00,986,WxPro DR1,2013-05-14 16:41:00,
2013-05-14 12:46:00,55.4,36.6,30.10,South,186,1.0,6.0,49,0.00,,,0.00,1044,WxPro DR1,2013-05-14 16:46:00,
2013-05-14 12:51:00,56.0,35.7,30.10,West,268,1.0,6.0,46,0.00,,,0.00,408,WxPro DR1,2013-05-14 16:51:00,
2013-05-14 12:56:00,55.6,35.6,30.10,SSE,163,0.0,5.0,47,0.00,,,0.00,408,WxPro DR1,2013-05-14 16:56:00,
2013-05-14 13:01:00,55.2,36.2,30.10,SSE,163,1.0,5.0,49,0.00,,,0.00,420,WxPro DR1,2013-05-14 17:01:00,
2013-05-14 13:06:00,55.0,34.0,30.09,West,275,1.0,7.0,45,0.00,,,0.00,404,WxPro DR1,2013-05-14 17:06:00,
2013-05-14 13:11:00,54.7,34.3,30.10,South,176,0.0,7.0,46,0.00,,,0.00,610,WxPro DR1,2013-05-14 17:11:00,
2013-05-14 13:16:00,55.0,35.9,30.09,WSW,247,4.0,10.0,49,0.00,,,0.00,1086,WxPro DR1,2013-05-14 17:16:00,
2013-05-14 13:21:00,55.8,35.0,30.09,West,277,3.0,10.0,45,0.00,,,0.00,1092,WxPro DR1,2013-05-14 17:21:00,
2013-05-14 13:26:00,55.6,34.1,30.09,South,184,0.0,9.0,44,0.00,,,0.00,1092,WxPro DR1,2013-05-14 17:26:00,
2013-05-14 13:31:00,55.5,33.9,30.09,SE,130,0.0,5.0,44,0.00,,,0.00,1032,WxPro DR1,2013-05-14 17:31:00,
2013-05-14 13:36:00,56.5,34.5,30.09,WSW,250,0.0,5.0,43,0.00,,,0.00,935,WxPro DR1,2013-05-14 17:36:00,
2013-05-14 13:41:00,56.5,35.5,30.08,WSW,244,4.0,5.0,45,0.00,,,0.00,981,WxPro DR1,2013-05-14 17:41:00,
2013-05-14 13:46:00,56.8,35.9,30.09,West,261,0.0,6.0,45,0.00,,,0.00,958,WxPro DR1,2013-05-14 17:46:00,
2013-05-14 13:51:00,57.4,33.9,30.09,NW,314,0.0,6.0,41,0.00,,,0.00,759,WxPro DR1,2013-05-14 17:51:00,
2013-05-14 13:56:00,57.0,34.1,30.09,WNW,301,0.0,4.0,42,0.00,,,0.00,846,WxPro DR1,2013-05-14 17:56:00,
2013-05-14 14:01:00,56.9,36.7,30.08,SE,136,2.0,8.0,47,0.00,,,0.00,1009,WxPro DR1,2013-05-14 18:01:00,
2013-05-14 14:06:00,58.4,36.5,30.08,SE,142,0.0,8.0,44,0.00,,,0.00,904,WxPro DR1,2013-05-14 18:06:00,
2013-05-14 14:11:00,59.0,35.7,30.08,NNW,342,3.0,6.0,42,0.00,,,0.00,979,WxPro DR1,2013-05-14 18:11:00,
2013-05-14 14:16:00,58.6,36.0,30.07,North,5,2.0,7.0,43,0.00,,,0.00,963,WxPro DR1,2013-05-14 18:16:00,
2013-05-14 14:21:00,58.6,35.1,30.07,North,351,2.0,10.0,41,0.00,,,0.00,960,WxPro DR1,2013-05-14 18:21:00,
2013-05-14 14:26:00,58.1,37.9,30.07,NNW,346,0.0,10.0,47,0.00,,,0.00,969,WxPro DR1,2013-05-14 18:26:00,
2013-05-14 14:31:00,59.0,35.8,30.07,South,182,2.0,10.0,42,0.00,,,0.00,981,WxPro DR1,2013-05-14 18:31:00,
2013-05-14 14:36:00,58.8,35.5,30.07,SSW,206,0.0,10.0,42,0.00,,,0.00,1039,WxPro DR1,2013-05-14 18:36:00,
2013-05-14 14:41:00,58.6,36.7,30.06,South,176,3.0,9.0,44,0.00,,,0.00,972,WxPro DR1,2013-05-14 18:41:00,
2013-05-14 14:46:00,59.2,35.2,30.06,South,180,3.0,9.0,40,0.00,,,0.00,956,WxPro DR1,2013-05-14 18:46:00,
2013-05-14 14:51:00,59.7,35.6,30.06,WSW,243,0.0,5.0,40,0.00,,,0.00,1039,WxPro DR1,2013-05-14 18:51:00,
2013-05-14 14:56:00,59.7,35.1,30.06,ESE,112,2.0,5.0,40,0.00,,,0.00,557,WxPro DR1,2013-05-14 18:56:00,
2013-05-14 15:01:00,60.2,35.9,30.05,ESE,113,0.0,5.0,40,0.00,,,0.00,561,WxPro DR1,2013-05-14 19:01:00,
2013-05-14 15:06:00,60.4,35.1,30.05,SE,134,3.0,4.0,39,0.00,,,0.00,570,WxPro DR1,2013-05-14 19:06:00,
2013-05-14 15:11:00,59.5,33.9,30.05,South,180,0.0,7.0,38,0.00,,,0.00,784,WxPro DR1,2013-05-14 19:11:00,
2013-05-14 15:16:00,59.2,35.3,30.04,SSW,192,0.0,7.0,41,0.00,,,0.00,926,WxPro DR1,2013-05-14 19:16:00,
2013-05-14 15:21:00,60.3,36.4,30.04,South,183,4.0,8.0,41,0.00,,,0.00,918,WxPro DR1,2013-05-14 19:21:00,
2013-05-14 15:26:00,61.1,34.8,30.03,South,190,3.0,8.0,37,0.00,,,0.00,956,WxPro DR1,2013-05-14 19:26:00,
2013-05-14 15:31:00,60.7,35.1,30.03,NE,42,2.0,7.0,38,0.00,,,0.00,900,WxPro DR1,2013-05-14 19:31:00,
2013-05-14 15:36:00,60.5,35.7,30.03,NE,34,0.0,7.0,40,0.00,,,0.00,821,WxPro DR1,2013-05-14 19:36:00,
2013-05-14 15:41:00,61.0,35.1,30.03,SSE,151,3.0,7.0,38,0.00,,,0.00,738,WxPro DR1,2013-05-14 19:41:00,
2013-05-14 15:46:00,60.6,35.1,30.03,WSW,256,0.0,7.0,38,0.00,,,0.00,522,WxPro DR1,2013-05-14 19:46:00,
2013-05-14 15:51:00,60.8,33.5,30.02,NW,306,0.0,6.0,36,0.00,,,0.00,601,WxPro DR1,2013-05-14 19:51:00,
2013-05-14 15:56:00,60.3,33.3,30.02,WNW,282,0.0,10.0,36,0.00,,,0.00,788,WxPro DR1,2013-05-14 19:56:00,
2013-05-14 16:01:00,59.3,33.1,30.02,West,277,0.0,10.0,37,0.00,,,0.00,580,WxPro DR1,2013-05-14 20:01:00,
2013-05-14 16:06:00,59.4,33.6,30.01,West,277,3.0,5.0,38,0.00,,,0.00,548,WxPro DR1,2013-05-14 20:06:00,
2013-05-14 16:11:00,59.4,33.5,30.01,SSE,168,1.0,6.0,38,0.00,,,0.00,608,WxPro DR1,2013-05-14 20:11:00,
2013-05-14 16:16:00,59.7,35.1,30.01,NW,319,4.0,6.0,40,0.00,,,0.00,649,WxPro DR1,2013-05-14 20:16:00,
2013-05-14 16:21:00,60.4,34.0,30.00,SSE,165,0.0,6.0,37,0.00,,,0.00,663,WxPro DR1,2013-05-14 20:21:00,
2013-05-14 16:26:00,60.4,34.8,30.00,South,181,0.0,7.0,38,0.00,,,0.00,919,WxPro DR1,2013-05-14 20:26:00,
2013-05-14 16:31:00,60.6,35.4,30.00,SW,236,1.0,7.0,39,0.00,,,0.00,907,WxPro DR1,2013-05-14 20:31:00,
2013-05-14 16:36:00,61.0,34.8,30.00,WNW,295,0.0,10.0,37,0.00,,,0.00,425,WxPro DR1,2013-05-14 20:36:00,
2013-05-14 16:41:00,60.6,34.4,30.00,West,280,0.0,10.0,37,0.00,,,0.00,330,WxPro DR1,2013-05-14 20:41:00,
2013-05-14 16:46:00,59.7,34.7,30.01,NW,312,2.0,7.0,39,0.00,,,0.00,410,WxPro DR1,2013-05-14 20:46:00,
2013-05-14 16:51:00,59.0,33.0,30.00,NW,309,0.0,7.0,37,0.00,,,0.00,881,WxPro DR1,2013-05-14 20:51:00,
2013-05-14 16:56:00,59.6,34.6,30.00,NW,309,2.0,4.0,39,0.00,,,0.00,489,WxPro DR1,2013-05-14 20:56:00,
2013-05-14 17:01:00,60.7,34.2,30.00,NNW,335,0.0,6.0,37,0.00,,,0.00,371,WxPro DR1,2013-05-14 21:01:00,
2013-05-14 17:06:00,60.5,34.0,30.00,North,356,0.0,7.0,37,0.00,,,0.00,432,WxPro DR1,2013-05-14 21:06:00,
2013-05-14 17:11:00,60.8,35.1,30.00,North,356,0.0,7.0,38,0.00,,,0.00,657,WxPro DR1,2013-05-14 21:11:00,
2013-05-14 17:16:00,61.8,34.6,30.00,WSW,250,0.0,6.0,36,0.00,,,0.00,320,WxPro DR1,2013-05-14 21:16:00,
2013-05-14 17:21:00,61.5,35.7,30.00,WSW,248,0.0,6.0,38,0.00,,,0.00,262,WxPro DR1,2013-05-14 21:21:00,
2013-05-14 17:26:00,61.0,35.0,30.00,SW,236,1.0,4.0,38,0.00,,,0.00,267,WxPro DR1,2013-05-14 21:26:00,
2013-05-14 17:31:00,60.1,34.2,30.00,SW,214,0.0,4.0,38,0.00,,,0.00,285,WxPro DR1,2013-05-14 21:31:00,
2013-05-14 17:36:00,59.6,34.5,30.00,South,171,1.0,6.0,39,0.00,,,0.00,278,WxPro DR1,2013-05-14 21:36:00,
2013-05-14 17:41:00,59.6,32.6,30.00,SW,216,0.0,7.0,36,0.00,,,0.00,248,WxPro DR1,2013-05-14 21:41:00,
2013-05-14 17:46:00,59.4,32.9,30.00,SW,215,0.0,7.0,37,0.00,,,0.00,258,WxPro DR1,2013-05-14 21:46:00,
2013-05-14 17:51:00,59.5,31.8,30.00,SSW,206,0.0,3.0,35,0.00,,,0.00,236,WxPro DR1,2013-05-14 21:51:00,
2013-05-14 17:56:00,59.7,32.0,29.99,SSW,206,0.0,3.0,35,0.00,,,0.00,241,WxPro DR1,2013-05-14 21:56:00,
2013-05-14 18:01:00,59.8,32.8,29.99,SSW,196,0.0,3.0,36,0.00,,,0.00,278,WxPro DR1,2013-05-14 22:01:00,
2013-05-14 18:06:00,59.6,32.9,29.98,SSW,196,1.0,3.0,36,0.00,,,0.00,262,WxPro DR1,2013-05-14 22:06:00,
2013-05-14 18:11:00,59.6,32.0,29.98,SSW,196,0.0,5.0,35,0.00,,,0.00,216,WxPro DR1,2013-05-14 22:11:00,
2013-05-14 18:16:00,59.4,31.9,29.98,SSW,197,0.0,5.0,35,0.00,,,0.00,204,WxPro DR1,2013-05-14 22:16:00,
2013-05-14 18:21:00,59.4,32.8,29.98,SSW,198,0.0,2.0,37,0.00,,,0.00,199,WxPro DR1,2013-05-14 22:21:00,
2013-05-14 18:26:00,59.4,32.7,29.98,SSE,155,0.0,3.0,36,0.00,,,0.00,169,WxPro DR1,2013-05-14 22:26:00,
2013-05-14 18:31:00,59.3,33.7,29.97,SSE,155,0.0,3.0,38,0.00,,,0.00,186,WxPro DR1,2013-05-14 22:31:00,
2013-05-14 18:36:00,59.2,34.1,29.98,SSE,155,0.0,2.0,39,0.00,,,0.00,181,WxPro DR1,2013-05-14 22:36:00,
2013-05-14 18:41:00,59.2,33.1,29.97,SSE,161,0.0,3.0,37,0.00,,,0.00,151,WxPro DR1,2013-05-14 22:41:00,
2013-05-14 18:46:00,59.0,32.2,29.97,SSE,149,0.0,3.0,36,0.00,,,0.00,132,WxPro DR1,2013-05-14 22:46:00,
2013-05-14 18:51:00,58.9,34.3,29.97,SSE,150,0.0,2.0,40,0.00,,,0.00,188,WxPro DR1,2013-05-14 22:51:00,
2013-05-14 18:56:00,58.8,34.2,29.97,SSE,150,0.0,2.0,39,0.00,,,0.00,125,WxPro DR1,2013-05-14 22:56:00,
2013-05-14 19:01:00,58.9,33.6,29.96,ESE,107,0.0,3.0,38,0.00,,,0.00,98,WxPro DR1,2013-05-14 23:01:00,
2013-05-14 19:06:00,58.6,33.8,29.96,ESE,109,2.0,3.0,39,0.00,,,0.00,95,WxPro DR1,2013-05-14 23:06:00,
2013-05-14 19:11:00,58.4,33.5,29.96,ESE,108,3.0,3.0,39,0.00,,,0.00,86,WxPro DR1,2013-05-14 23:11:00,
2013-05-14 19:16:00,58.2,34.1,29.96,ESE,109,0.0,3.0,40,0.00,,,0.00,76,WxPro DR1,2013-05-14 23:16:00,
2013-05-14 19:21:00,58.0,35.0,29.96,ESE,109,0.0,3.0,42,0.00,,,0.00,60,WxPro DR1,2013-05-14 23:21:00,
2013-05-14 19:26:00,57.9,35.1,29.96,ESE,108,0.0,0.0,42,0.00,,,0.00,53,WxPro DR1,2013-05-14 23:26:00,
2013-05-14 19:31:00,57.7,35.9,29.96,ESE,109,0.0,0.0,44,0.00,,,0.00,46,WxPro DR1,2013-05-14 23:31:00,
2013-05-14 19:36:00,57.4,36.3,29.96,ESE,109,1.0,1.0,45,0.00,,,0.00,42,WxPro DR1,2013-05-14 23:36:00,
2013-05-14 19:41:00,57.2,35.2,29.96,ESE,107,0.0,1.0,44,0.00,,,0.00,35,WxPro DR1,2013-05-14 23:41:00,
2013-05-14 19:46:00,57.0,35.3,29.96,ESE,109,0.0,1.0,44,0.00,,,0.00,28,WxPro DR1,2013-05-14 23:46:00,
2013-05-14 19:51:00,56.9,35.7,29.96,ESE,109,0.0,0.0,45,0.00,,,0.00,25,WxPro DR1,2013-05-14 23:51:00,
2013-05-14 19:56:00,56.7,35.6,29.97,ESE,109,0.0,0.0,45,0.00,,,0.00,19,WxPro DR1,2013-05-14 23:56:00,
2013-05-14 20:01:00,56.6,36.4,29.96,ESE,109,0.0,0.0,47,0.00,,,0.00,12,WxPro DR1,2013-05-15 00:01:00,
2013-05-14 20:06:00,56.3,36.7,29.97,ESE,107,0.0,1.0,48,0.00,,,0.00,11,WxPro DR1,2013-05-15 00:06:00,
2013-05-14 20:11:00,56.1,37.4,29.97,ESE,109,0.0,1.0,49,0.00,,,0.00,5,WxPro DR1,2013-05-15 00:11:00,
2013-05-14 20:16:00,55.8,37.9,29.97,ESE,108,0.0,2.0,51,0.00,,,0.00,5,WxPro DR1,2013-05-15 00:16:00,
2013-05-14 20:21:00,55.4,38.5,29.97,ESE,106,0.0,3.0,53,0.00,,,0.00,0,WxPro DR1,2013-05-15 00:21:00,
2013-05-14 20:26:00,54.8,39.0,29.97,ESE,106,0.0,3.0,55,0.00,,,0.00,0,WxPro DR1,2013-05-15 00:26:00,
2013-05-14 20:31:00,54.4,39.0,29.98,ESE,106,0.0,2.0,56,0.00,,,0.00,0,WxPro DR1,2013-05-15 00:31:00,
2013-05-14 20:36:00,53.9,38.6,29.98,ESE,105,0.0,4.0,56,0.00,,,0.00,0,WxPro DR1,2013-05-15 00:36:00,
2013-05-14 20:41:00,53.6,38.7,29.98,ESE,106,0.0,4.0,57,0.00,,,0.00,0,WxPro DR1,2013-05-15 00:41:00,
2013-05-14 20:46:00,53.3,38.5,29.98,ESE,106,0.0,2.0,57,0.00,,,0.00,0,WxPro DR1,2013-05-15 00:46:00,
2013-05-14 20:51:00,53.1,38.7,29.98,ESE,106,0.0,2.0,58,0.00,,,0.00,0,WxPro DR1,2013-05-15 00:51:00,
2013-05-14 20:56:00,52.8,39.3,29.98,ESE,106,0.0,1.0,60,0.00,,,0.00,0,WxPro DR1,2013-05-15 00:56:00,
2013-05-14 21:01:00,52.4,39.0,29.98,ESE,106,0.0,1.0,60,0.00,,,0.00,0,WxPro DR1,2013-05-15 01:01:00,
2013-05-14 21:06:00,52.0,39.0,29.98,ESE,105,0.0,0.0,61,0.00,,,0.00,0,WxPro DR1,2013-05-15 01:06:00,
2013-05-14 21:11:00,51.6,39.0,29.98,ESE,106,0.0,2.0,62,0.00,,,0.00,0,WxPro DR1,2013-05-15 01:11:00,
2013-05-14 21:16:00,51.2,38.6,29.98,ESE,106,0.0,2.0,62,0.00,,,0.00,0,WxPro DR1,2013-05-15 01:16:00,
2013-05-14 21:21:00,50.9,38.7,29.98,ESE,106,0.0,2.0,63,0.00,,,0.00,0,WxPro DR1,2013-05-15 01:21:00,
2013-05-14 21:26:00,50.5,39.3,29.98,ESE,106,0.0,0.0,65,0.00,,,0.00,0,WxPro DR1,2013-05-15 01:26:00,
2013-05-14 21:31:00,50.1,39.2,29.98,ESE,105,0.0,0.0,66,0.00,,,0.00,0,WxPro DR1,2013-05-15 01:31:00,
2013-05-14 21:36:00,49.6,39.1,29.98,ESE,105,0.0,0.0,67,0.00,,,0.00,0,WxPro DR1,2013-05-15 01:36:00,
2013-05-14 21:41:00,49.2,39.1,29.98,ESE,106,0.0,0.0,68,0.00,,,0.00,0,WxPro DR1,2013-05-15 01:41:00,
2013-05-14 21:46:00,48.8,39.1,29.98,ESE,106,0.0,1.0,69,0.00,,,0.00,0,WxPro DR1,2013-05-15 01:46:00,
2013-05-14 21:51:00,48.6,39.2,29.98,ESE,106,0.0,1.0,70,0.00,,,0.00,0,WxPro DR1,2013-05-15 01:51:00,
2013-05-14 21:56:00,48.4,39.4,29.98,ESE,106,0.0,0.0,71,0.00,,,0.00,0,WxPro DR1,2013-05-15 01:56:00,
2013-05-14 22:01:00,48.2,40.0,29.98,ESE,106,0.0,0.0,73,0.00,,,0.00,0,WxPro DR1,2013-05-15 02:01:00,
2013-05-14 22:06:00,48.1,39.9,29.98,ESE,106,0.0,0.0,73,0.00,,,0.00,0,WxPro DR1,2013-05-15 02:06:00,
2013-05-14 22:11:00,47.9,39.3,29.98,ESE,106,0.0,0.0,72,0.00,,,0.00,0,WxPro DR1,2013-05-15 02:11:00,
2013-05-14 22:16:00,47.9,39.6,29.98,ESE,106,0.0,0.0,73,0.00,,,0.00,0,WxPro DR1,2013-05-15 02:16:00,
2013-05-14 22:21:00,47.9,39.3,29.98,ESE,106,0.0,1.0,72,0.00,,,0.00,0,WxPro DR1,2013-05-15 02:21:00,
2013-05-14 22:26:00,48.1,38.8,29.98,ESE,106,0.0,3.0,70,0.00,,,0.00,0,WxPro DR1,2013-05-15 02:26:00,
2013-05-14 22:31:00,48.5,38.8,29.97,ESE,106,0.0,3.0,69,0.00,,,0.00,0,WxPro DR1,2013-05-15 02:31:00,
2013-05-14 22:36:00,48.6,38.2,29.97,ESE,106,0.0,1.0,67,0.00,,,0.00,0,WxPro DR1,2013-05-15 02:36:00,
2013-05-14 22:41:00,48.7,38.3,29.97,ESE,106,0.0,1.0,67,0.00,,,0.00,0,WxPro DR1,2013-05-15 02:41:00,
2013-05-14 22:46:00,48.7,38.5,29.97,ESE,106,0.0,2.0,68,0.00,,,0.00,0,WxPro DR1,2013-05-15 02:46:00,
2013-05-14 22:51:00,48.5,38.4,29.97,ESE,105,0.0,2.0,68,0.00,,,0.00,0,WxPro DR1,2013-05-15 02:51:00,
2013-05-14 22:56:00,48.4,38.2,29.97,ESE,106,0.0,2.0,68,0.00,,,0.00,0,WxPro DR1,2013-05-15 02:56:00,
2013-05-14 23:01:00,48.4,37.9,29.96,ESE,106,0.0,2.0,67,0.00,,,0.00,0,WxPro DR1,2013-05-15 03:01:00,
2013-05-14 23:06:00,48.5,37.8,29.96,ESE,106,0.0,2.0,66,0.00,,,0.00,0,WxPro DR1,2013-05-15 03:06:00,
2013-05-14 23:11:00,48.7,38.2,29.96,ESE,106,0.0,3.0,67,0.00,,,0.00,0,WxPro DR1,2013-05-15 03:11:00,
2013-05-14 23:16:00,48.7,37.9,29.95,ESE,106,0.0,3.0,66,0.00,,,0.00,0,WxPro DR1,2013-05-15 03:16:00,
2013-05-14 23:21:00,48.8,37.2,29.95,ESE,103,1.0,2.0,64,0.00,,,0.00,0,WxPro DR1,2013-05-15 03:21:00,
2013-05-14 23:26:00,48.8,37.2,29.95,ESE,103,0.0,2.0,64,0.00,,,0.00,0,WxPro DR1,2013-05-15 03:26:00,
2013-05-14 23:31:00,48.8,37.2,29.95,ESE,104,0.0,2.0,64,0.00,,,0.00,0,WxPro DR1,2013-05-15 03:31:00,
2013-05-14 23:36:00,48.7,37.5,29.95,ESE,104,0.0,2.0,65,0.00,,,0.00,0,WxPro DR1,2013-05-15 03:36:00,
2013-05-14 23:41:00,48.6,37.6,29.95,ESE,104,0.0,1.0,66,0.00,,,0.00,0,WxPro DR1,2013-05-15 03:41:00,
2013-05-14 23:46:00,48.3,37.1,29.94,ESE,103,0.0,2.0,65,0.00,,,0.00,0,WxPro DR1,2013-05-15 03:46:00,
2013-05-14 23:51:00,48.2,37.3,29.94,ESE,105,2.0,3.0,66,0.00,,,0.00,0,WxPro DR1,2013-05-15 03:51:00,
2013-05-14 23:56:00,48.1,37.0,29.93,ESE,103,0.0,3.0,65,0.00,,,0.00,0,WxPro DR1,2013-05-15 03:56:00,